STARLINK-2739, 48639

Orbit data source: Space-Track

STARLINK-2739, 48639 is a payload satellite owned by SpaceX/Seattle (US) in LEO that was launched on Wed, 26 May 2021 UTC via an FALCON 9 launch vehicle from the Air Force Eastern Test Range (AFETR). Payload-class satellites include a variety of spacecraft equipped with specific instruments for various scientific and technological missions. These include communications satellites like Starlink; space stations such as the ISS; scientific satellites like the Hubble; Earth observation satellites from companies like Planet Labs, Umbra, and HawkEye 360; GPS; miniature CubeSats for education and research; and military/defense satellites.

Loading next visibility...
Identifier
48639, 2021-044B
Orbit
LEO
Country
Flag of USUS
Related business
Manufacturer
SpaceX/Seattle
Mission
Operational Commercial Communications
Bus & Motor
STARLINK, Unknown motor
Mass
260 kg wet, ~248 kg dry
Launch date (UTC)
2021-05-26 (5 years ago)
Launch vehicle
FALCON 9
Launch site
Air Force Eastern Test Range (AFETR)
Object type
Payload
Rocket body
Debris
Shape & HBR
Box + 1 Pan, 10.1 m
Radar Cross Section
13.562 m², Large (>1 m²)

Expand to show TLE details & history
Last TLE update: 2 days ago

TLE from 2 days ago
0 STARLINK-2739
1 48639U 21044B   26171.43049316  .00014405  00000-0  47495-3 0  9994
2 48639  53.1604 355.8729 0000914  75.1822 284.9280 15.31706990279562
Epoch: 2026-06-20T10:19Z
TLE epoch observation values (Epoch: 2026-06-20T10:19:54.609Z)
Latitude
-0.00005°
Longitude
-67.7499°
Altitude
471.458 km
Speed
7.632 km/s
True Right ascension
23h 43m 29s
True Declination
0° 00' 00"
Sunlit
Object was in daylight at epoch
Visualization orbit readout
Latitude
Unknown
Longitude
Unknown
Altitude
Unknown
Speed
Unknown
Apparent Right ascension
Unknown
Apparent Declination
Unknown
Sunlit
N/A
Visualization observer readout
Local Sidereal Time
21:34:23
Azimuth
Unknown
Elevation
Unknown
Doppler factor
Unknown
Orbital elements
Apogee altitude
471.602 km
Perigee altitude
470.35 km
Semi-major axis
6,849.113 km
Eccentricity
0.00009
Inclination
53.1604°
RAAN
355.8729°
Arg. of periapsis
75.1822°
True anomaly
284.91788°
Mean anomaly
284.928°
Eccentric anomaly
284.92294°
Mean motion
3.82906 °/min
Orbital period
94.02 mins
BSTAR
0.00047495
Loading maneuver chart data...
Computing Atmospheric mass density...

Documentation

Showing up to 5 results
|